HFY5UP EGNX-EGKK

Flight info

Callsign HFY5UP
Flight time 0h 26m
Altitude 15000
Route SAPCO Y53 DTY DCT WEZKO DCT MID
Aircraft A343/H-SDE2E3FGHIJ4J5M1RWXY/LB1D1

Departure

Time 2026-05-04 19:25
Airport East Midlands Airport (EGNX)

Arrival

Time 2026-05-04 19:51
Airport London Gatwick Airport (EGKK)
Time Latitude Longitude Altitude Speed Heading
2026-05-04 19:03 52.82808 -1.33493 305 ft 0 kts 127°
2026-05-04 19:14 52.82820 -1.33518 307 ft 4 kts 127°
2026-05-04 19:14 52.82835 -1.33551 306 ft 4 kts 126°
2026-05-04 19:14 52.82844 -1.33583 304 ft 4 kts 60°
2026-05-04 19:14 52.82825 -1.33602 307 ft 4 kts
2026-05-04 19:15 52.82798 -1.33606 305 ft 4 kts 360°
2026-05-04 19:15 52.82788 -1.33606 307 ft 0 kts 358°
2026-05-04 19:17 52.82793 -1.33606 304 ft 2 kts 358°
2026-05-04 19:17 52.82818 -1.33608 307 ft 4 kts 358°
2026-05-04 19:17 52.82854 -1.33610 307 ft 6 kts 358°
2026-05-04 19:17 52.82896 -1.33597 308 ft 5 kts 31°
2026-05-04 19:18 52.82908 -1.33570 309 ft 2 kts 61°
2026-05-04 19:18 52.82912 -1.33548 311 ft 5 kts 72°
2026-05-04 19:18 52.82918 -1.33475 312 ft 7 kts 86°
2026-05-04 19:18 52.82920 -1.33395 312 ft 8 kts 88°
2026-05-04 19:19 52.82923 -1.33288 310 ft 12 kts 88°
2026-05-04 19:19 52.82925 -1.33136 309 ft 15 kts 88°
2026-05-04 19:19 52.82928 -1.32961 306 ft 15 kts 88°
2026-05-04 19:19 52.82931 -1.32777 309 ft 17 kts 88°
2026-05-04 19:20 52.82935 -1.32573 305 ft 19 kts 88°
2026-05-04 19:20 52.82939 -1.32359 305 ft 19 kts 88°
2026-05-04 19:20 52.82943 -1.32133 305 ft 20 kts 88°
2026-05-04 19:20 52.82948 -1.31904 309 ft 20 kts 88°
2026-05-04 19:21 52.82952 -1.31670 305 ft 21 kts 88°
2026-05-04 19:21 52.82957 -1.31426 308 ft 21 kts 88°
2026-05-04 19:21 52.82961 -1.31177 309 ft 22 kts 88°
2026-05-04 19:21 52.82964 -1.31004 308 ft 9 kts 88°
2026-05-04 19:22 52.82966 -1.30894 306 ft 10 kts 88°
2026-05-04 19:22 52.82977 -1.30771 309 ft 11 kts 68°
2026-05-04 19:22 52.83012 -1.30707 308 ft 4 kts 34°
2026-05-04 19:22 52.83014 -1.30705 308 ft 0 kts 32°
2026-05-04 19:23 52.83019 -1.30700 307 ft 4 kts 30°
2026-05-04 19:23 52.83073 -1.30683 308 ft 10 kts
2026-05-04 19:23 52.83135 -1.30756 306 ft 15 kts 286°
2026-05-04 19:23 52.83133 -1.30938 308 ft 16 kts 268°
2026-05-04 19:24 52.83127 -1.31245 309 ft 53 kts 268°
2026-05-04 19:24 52.83111 -1.32228 309 ft 116 kts 269°
2026-05-04 19:24 52.83080 -1.33857 369 ft 160 kts 268°
2026-05-04 19:24 52.83046 -1.35768 837 ft 172 kts 268°
2026-05-04 19:25 52.83012 -1.37822 1457 ft 186 kts 269°
2026-05-04 19:25 52.82855 -1.40030 1995 ft 205 kts 249°
2026-05-04 19:25 52.81846 -1.41883 2490 ft 235 kts 213°
2026-05-04 19:25 52.80391 -1.43390 3013 ft 255 kts 215°
2026-05-04 19:26 52.78949 -1.45161 3986 ft 260 kts 220°
2026-05-04 19:26 52.77570 -1.47113 5082 ft 264 kts 223°
2026-05-04 19:26 52.76028 -1.48772 6102 ft 269 kts 200°
2026-05-04 19:26 52.74171 -1.48939 7210 ft 272 kts 167°
2026-05-04 19:27 52.72390 -1.47862 8241 ft 275 kts 158°
2026-05-04 19:27 52.70620 -1.46577 9210 ft 280 kts 158°
2026-05-04 19:27 52.68811 -1.45284 10124 ft 285 kts 158°
2026-05-04 19:27 52.66937 -1.43978 10700 ft 302 kts 158°
2026-05-04 19:28 52.64951 -1.42620 11068 ft 323 kts 159°
2026-05-04 19:28 52.62777 -1.41211 11429 ft 342 kts 160°
2026-05-04 19:28 52.60526 -1.39795 11872 ft 357 kts 160°
2026-05-04 19:28 52.58175 -1.38315 12595 ft 364 kts 160°
2026-05-04 19:29 52.55791 -1.36815 13360 ft 370 kts 161°
2026-05-04 19:29 52.53299 -1.35707 14059 ft 374 kts 172°
2026-05-04 19:29 52.50690 -1.35377 14812 ft 377 kts 179°
2026-05-04 19:29 52.48053 -1.35314 15570 ft 381 kts 181°
2026-05-04 19:30 52.45410 -1.35312 16332 ft 384 kts 181°
2026-05-04 19:30 52.42728 -1.35328 16835 ft 386 kts 181°
2026-05-04 19:30 52.40032 -1.35354 17081 ft 392 kts 181°
2026-05-04 19:30 52.37268 -1.35386 17053 ft 400 kts 181°
2026-05-04 19:31 52.34483 -1.35419 17045 ft 400 kts 181°
2026-05-04 19:31 52.31696 -1.35452 17048 ft 400 kts 181°
2026-05-04 19:31 52.28913 -1.35486 17049 ft 400 kts 181°
2026-05-04 19:31 52.26139 -1.35521 17047 ft 400 kts 181°
2026-05-04 19:32 52.23356 -1.35556 17047 ft 400 kts 181°
2026-05-04 19:32 52.20567 -1.35591 17048 ft 400 kts 181°
2026-05-04 19:32 52.17793 -1.35626 17048 ft 400 kts 181°
2026-05-04 19:32 52.14998 -1.35661 17048 ft 400 kts 181°
2026-05-04 19:33 52.12219 -1.35696 17049 ft 400 kts 181°
2026-05-04 19:33 52.09436 -1.35732 17047 ft 400 kts 181°
2026-05-04 19:33 52.06653 -1.35768 17046 ft 400 kts 181°
2026-05-04 19:33 52.03910 -1.35802 17045 ft 400 kts 181°
2026-05-04 19:34 52.01129 -1.35837 17046 ft 400 kts 181°
2026-05-04 19:34 51.98313 -1.35872 17046 ft 400 kts 181°
2026-05-04 19:34 51.95524 -1.35906 17046 ft 400 kts 181°
2026-05-04 19:34 51.92744 -1.35941 17048 ft 401 kts 181°
2026-05-04 19:35 51.89987 -1.35975 17046 ft 401 kts 181°
2026-05-04 19:35 51.87165 -1.36011 17048 ft 400 kts 181°
2026-05-04 19:35 51.84425 -1.36045 16625 ft 397 kts 181°
2026-05-04 19:35 51.81659 -1.36079 15912 ft 396 kts 181°
2026-05-04 19:36 51.78914 -1.36011 15352 ft 392 kts 175°
2026-05-04 19:36 51.76313 -1.34985 15089 ft 382 kts 156°
2026-05-04 19:36 51.74002 -1.32907 15051 ft 380 kts 148°
2026-05-04 19:36 51.71777 -1.30589 15045 ft 381 kts 147°
2026-05-04 19:37 51.69579 -1.28279 14648 ft 375 kts 147°
2026-05-04 19:37 51.67387 -1.25985 14392 ft 378 kts 147°
2026-05-04 19:37 51.65170 -1.23672 14248 ft 380 kts 147°
2026-05-04 19:37 51.62957 -1.21370 14091 ft 379 kts 147°
2026-05-04 19:38 51.60755 -1.19082 13948 ft 378 kts 147°
2026-05-04 19:38 51.58533 -1.16779 13797 ft 377 kts 147°
2026-05-04 19:38 51.56329 -1.14497 13652 ft 377 kts 147°
2026-05-04 19:38 51.54133 -1.12226 13505 ft 375 kts 147°
2026-05-04 19:39 51.51931 -1.09951 13357 ft 374 kts 147°
2026-05-04 19:39 51.49771 -1.07724 13217 ft 373 kts 147°
2026-05-04 19:39 51.47560 -1.05445 13075 ft 372 kts 147°
2026-05-04 19:39 51.45382 -1.03204 12935 ft 372 kts 147°
2026-05-04 19:40 51.43207 -1.00968 12796 ft 371 kts 147°
2026-05-04 19:40 51.41036 -0.98740 12648 ft 370 kts 147°
2026-05-04 19:40 51.38877 -0.96525 12511 ft 369 kts 147°
2026-05-04 19:40 51.36716 -0.94311 12372 ft 368 kts 147°
2026-05-04 19:41 51.34558 -0.92103 12022 ft 368 kts 147°
2026-05-04 19:41 51.32420 -0.89918 11375 ft 361 kts 147°
2026-05-04 19:41 51.30366 -0.87821 10302 ft 352 kts 147°
2026-05-04 19:41 51.28433 -0.85848 9204 ft 346 kts 148°
2026-05-04 19:42 51.26472 -0.83849 8571 ft 323 kts 147°
2026-05-04 19:42 51.24645 -0.81990 8147 ft 300 kts 147°
2026-05-04 19:42 51.22940 -0.80257 8015 ft 283 kts 147°
2026-05-04 19:42 51.21297 -0.78589 8016 ft 277 kts 147°
2026-05-04 19:43 51.19669 -0.76937 8019 ft 278 kts 147°
2026-05-04 19:43 51.17954 -0.75533 7999 ft 277 kts 161°
2026-05-04 19:43 51.16094 -0.74828 7737 ft 274 kts 169°
2026-05-04 19:43 51.14209 -0.74325 7348 ft 276 kts 171°
2026-05-04 19:44 51.12305 -0.73845 6991 ft 276 kts 171°
2026-05-04 19:44 51.10405 -0.73376 6650 ft 276 kts 171°
2026-05-04 19:44 51.08502 -0.73021 6291 ft 276 kts 176°
2026-05-04 19:44 51.06591 -0.72847 5906 ft 275 kts 170°
2026-05-04 19:45 51.04851 -0.71685 5517 ft 272 kts 142°
2026-05-04 19:45 51.03659 -0.69418 5230 ft 266 kts 114°
2026-05-04 19:45 51.03295 -0.66653 4983 ft 249 kts 85°
2026-05-04 19:45 51.03729 -0.64082 4562 ft 238 kts 65°
2026-05-04 19:46 51.04469 -0.61763 4195 ft 236 kts 61°
2026-05-04 19:46 51.05240 -0.59522 4000 ft 231 kts 61°
2026-05-04 19:46 51.06008 -0.57304 3756 ft 228 kts 60°
2026-05-04 19:46 51.06866 -0.55196 3498 ft 226 kts 52°
2026-05-04 19:47 51.07840 -0.53238 3251 ft 225 kts 51°
2026-05-04 19:47 51.08769 -0.51254 3035 ft 221 kts 55°
2026-05-04 19:47 51.09634 -0.49211 2996 ft 219 kts 58°
2026-05-04 19:47 51.10390 -0.47137 3002 ft 220 kts 60°
2026-05-04 19:48 51.11091 -0.44946 3006 ft 231 kts 68°
2026-05-04 19:48 51.11576 -0.42380 2977 ft 250 kts 76°
2026-05-04 19:48 51.11953 -0.39641 2674 ft 254 kts 76°
2026-05-04 19:48 51.12332 -0.36972 2311 ft 236 kts 76°
2026-05-04 19:49 51.12665 -0.34566 1994 ft 210 kts 76°
2026-05-04 19:49 51.12962 -0.32419 1728 ft 189 kts 76°
2026-05-04 19:49 51.13231 -0.30482 1499 ft 169 kts 76°
2026-05-04 19:49 51.13472 -0.28740 1276 ft 154 kts 76°
2026-05-04 19:50 51.13691 -0.27158 1058 ft 140 kts 76°
2026-05-04 19:50 51.13890 -0.25713 853 ft 128 kts 76°
2026-05-04 19:50 51.14078 -0.24353 692 ft 125 kts 77°
2026-05-04 19:50 51.14268 -0.22993 540 ft 126 kts 75°
2026-05-04 19:51 51.14466 -0.21616 361 ft 127 kts 77°
2026-05-04 19:51 51.14646 -0.20256 225 ft 125 kts 76°
2026-05-04 19:51 51.14811 -0.19067 214 ft 86 kts 78°
2026-05-04 19:51 51.14905 -0.18385 213 ft 47 kts 77°
2026-05-04 19:52 51.14969 -0.18011 215 ft 32 kts 65°
2026-05-04 19:52 51.15037 -0.17837 220 ft 14 kts 52°
2026-05-04 19:52 51.15120 -0.17763 209 ft 15 kts
2026-05-04 19:52 51.15164 -0.17768 213 ft 0 kts 354°
2026-05-04 19:53 51.15169 -0.17768 209 ft 0 kts 354°
2026-05-04 19:54 51.15170 -0.17769 209 ft 1 kts 354°
2026-05-04 19:54 51.15193 -0.17772 219 ft 5 kts 354°
2026-05-04 19:54 51.15242 -0.17762 217 ft 9 kts 28°
2026-05-04 19:55 51.15270 -0.17668 211 ft 11 kts 77°
2026-05-04 19:55 51.15285 -0.17564 209 ft 9 kts 77°
2026-05-04 19:55 51.15298 -0.17456 214 ft 11 kts 80°
2026-05-04 19:55 51.15343 -0.17378 217 ft 10 kts 14°
2026-05-04 19:56 51.15413 -0.17392 214 ft 11 kts 350°
2026-05-04 19:56 51.15494 -0.17420 211 ft 13 kts 347°
2026-05-04 19:56 51.15569 -0.17428 214 ft 9 kts 25°
2026-05-04 19:56 51.15597 -0.17335 214 ft 10 kts 73°
2026-05-04 19:57 51.15619 -0.17218 216 ft 12 kts 75°
2026-05-04 19:57 51.15637 -0.17091 211 ft 11 kts 74°
2026-05-04 19:57 51.15697 -0.17045 215 ft 10 kts 353°
2026-05-04 19:57 51.15774 -0.17068 212 ft 11 kts 349°
2026-05-04 19:58 51.15802 -0.17075 208 ft 4 kts 354°
2026-05-04 19:58 51.15818 -0.17055 219 ft 2 kts 57°
2026-05-04 19:58 51.15821 -0.17022 213 ft 4 kts 84°
2026-05-04 19:58 51.15823 -0.16969 213 ft 3 kts 87°
2026-05-04 19:59 51.15823 -0.16957 211 ft 2 kts 88°
2026-05-04 19:59 51.15823 -0.16949 210 ft 0 kts 88°